Location: Bühlhof
(48.7849°N, 8.6361°E)
Time: 23:44:38
(UTC+00:00)

SJ-7 - Pass Details

Date: 19 January 2026
Orbit: 495 x 520 km, 97.7° (Epoch: 18 February)

Event Time Altitude Azimuth Distance (km) Brightness Sun altitude
Rises 17:55:57 0° 167° (SSE) 2,638 7.8 -18.2°
Reaches altitude 10° 17:58:02 10° 169° (S) 1,753 6.9 -18.6°
Maximum altitude 18:01:49 81° 255° (WSW) 533 4.2 -19.2°
Drops below altitude 10° 18:05:37 10° 345° (NNW) 1,757 7.0 -19.8°
Sets 18:07:44 0° 346° (NNW) 2,646 7.9 -20.2°
